Location: Calimesa Mobile Home Ranch
(33.9736°N, 117.0370°W)
Time: 01:01:26
(UTC+00:00)

ISS - Visible Passes

Search period start: 18 July 2024 00:00
Search period end: 28 July 2024 00:00
Orbit: 409 x 424 km, 51.6° (Epoch: 17 July)

Date Brightness Start Highest point End Pass type
(mag) Time Alt. Az. Time Alt. Az. Time Alt. Az.
21 Jul -0.2 06:25:14 10° NNW 06:25:21 11° NNW 06:25:21 11° NNW visible
22 Jul -0.9 05:37:20 10° N 05:38:26 13° NNE 05:38:26 13° NNE visible
24 Jul -1.2 05:36:07 10° NNW 05:37:31 20° NNW 05:37:31 20° NNW visible
25 Jul -1.8 04:47:57 10° NNW 04:50:29 20° NNE 04:50:38 20° NE visible
26 Jul -1.2 03:59:59 10° N 04:01:42 13° NNE 04:03:26 10° ENE visible
26 Jul -1.2 05:35:27 10° NW 05:36:39 20° NW 05:36:39 20° NW visible
27 Jul -3.3 04:46:52 10° NW 04:49:48 53° NNE 04:49:48 53° NNE visible
